Time,TemperatureF,DewpointF,PressureIn,WindDirection,WindDirectionDegrees,WindSpeedMPH,WindSpeedGustMPH,Humidity,HourlyPrecipIn,Conditions,Clouds,dailyrainin,SoftwareType,DateUTC
2013-03-28 00:05:00,55.2,46.3,30.13,North,0,0.0,0.0,72,0.00,,,0.00,WUHU216HW,2013-03-28 05:05:00,
2013-03-28 00:10:00,55.0,46.1,30.13,North,0,0.0,0.0,72,0.00,,,0.00,WUHU216HW,2013-03-28 05:10:00,
2013-03-28 00:15:00,55.0,46.1,30.13,North,0,0.0,0.0,72,0.00,,,0.00,WUHU216HW,2013-03-28 05:15:00,
2013-03-28 00:20:00,55.0,46.1,30.13,North,0,0.0,0.0,73,0.00,,,0.00,WUHU216HW,2013-03-28 05:20:00,
2013-03-28 00:25:00,54.8,46.3,30.13,North,0,0.0,0.0,73,0.00,,,0.00,WUHU216HW,2013-03-28 05:25:00,
2013-03-28 00:30:00,54.6,46.1,30.13,North,0,0.0,0.0,73,0.00,,,0.00,WUHU216HW,2013-03-28 05:30:00,
2013-03-28 00:35:00,54.6,46.1,30.12,North,0,0.0,0.0,74,0.00,,,0.00,WUHU216HW,2013-03-28 05:35:00,
2013-03-28 00:40:00,54.6,46.1,30.13,North,0,0.0,0.0,74,0.00,,,0.00,WUHU216HW,2013-03-28 05:40:00,
2013-03-28 00:45:00,54.6,46.1,30.13,North,0,0.0,0.0,74,0.00,,,0.00,WUHU216HW,2013-03-28 05:45:00,
2013-03-28 00:50:00,54.6,46.1,30.12,North,0,0.0,0.0,75,0.00,,,0.00,WUHU216HW,2013-03-28 05:50:00,
2013-03-28 00:55:00,54.6,46.1,30.12,North,0,0.0,0.0,75,0.00,,,0.00,WUHU216HW,2013-03-28 05:55:00,
2013-03-28 01:00:00,54.6,46.1,30.12,North,0,0.0,0.0,75,0.00,,,0.00,WUHU216HW,2013-03-28 06:00:00,
2013-03-28 01:05:00,54.6,46.1,30.12,North,0,0.0,0.0,75,0.00,,,0.00,WUHU216HW,2013-03-28 06:05:00,
2013-03-28 01:10:00,54.6,46.1,30.11,North,0,0.0,0.0,76,0.00,,,0.00,WUHU216HW,2013-03-28 06:10:00,
2013-03-28 01:15:00,54.6,46.1,30.12,North,0,0.0,0.0,76,0.00,,,0.00,WUHU216HW,2013-03-28 06:15:00,
2013-03-28 01:20:00,54.5,47.0,30.11,North,0,0.0,0.0,76,0.00,,,0.00,WUHU216HW,2013-03-28 06:20:00,
2013-03-28 01:25:00,54.6,47.5,30.11,North,0,0.0,0.0,77,0.00,,,0.00,WUHU216HW,2013-03-28 06:25:00,
2013-03-28 01:30:00,54.6,47.5,30.11,North,0,0.0,0.0,77,0.00,,,0.00,WUHU216HW,2013-03-28 06:30:00,
2013-03-28 01:35:00,54.6,47.5,30.11,North,0,0.0,0.0,77,0.00,,,0.00,WUHU216HW,2013-03-28 06:35:00,
2013-03-28 01:40:00,54.6,47.5,30.11,North,0,0.0,0.0,77,0.00,,,0.00,WUHU216HW,2013-03-28 06:40:00,
2013-03-28 01:45:00,54.5,47.4,30.11,North,0,0.0,0.0,77,0.00,,,0.00,WUHU216HW,2013-03-28 06:45:00,
2013-03-28 01:50:00,54.5,47.4,30.11,North,0,0.0,0.0,77,0.00,,,0.00,WUHU216HW,2013-03-28 06:50:00,
2013-03-28 01:55:00,54.5,47.4,30.11,North,0,0.0,0.0,78,0.00,,,0.00,WUHU216HW,2013-03-28 06:55:00,
2013-03-28 02:00:00,54.5,47.7,30.11,North,0,0.0,0.0,78,0.00,,,0.00,WUHU216HW,2013-03-28 07:00:00,
2013-03-28 02:05:00,54.5,47.7,30.11,North,0,0.0,0.0,78,0.00,,,0.00,WUHU216HW,2013-03-28 07:05:00,
2013-03-28 02:10:00,54.3,47.6,30.11,North,0,0.0,0.0,78,0.00,,,0.00,WUHU216HW,2013-03-28 07:10:00,
2013-03-28 02:15:00,54.3,47.6,30.11,North,0,0.0,0.0,79,0.00,,,0.00,WUHU216HW,2013-03-28 07:15:00,
2013-03-28 02:20:00,54.3,47.6,30.11,North,0,0.0,0.0,79,0.00,,,0.00,WUHU216HW,2013-03-28 07:20:00,
2013-03-28 02:37:00,54.1,47.7,30.10,North,0,0.0,0.0,80,0.00,,,0.00,WUHU216HW,2013-03-28 07:37:00,
2013-03-28 03:09:00,54.3,48.6,30.10,North,0,0.0,0.0,81,0.00,,,0.00,WUHU216HW,2013-03-28 08:09:00,
2013-03-28 03:14:00,54.1,48.4,30.09,North,0,0.0,0.0,81,0.00,,,0.00,WUHU216HW,2013-03-28 08:14:00,
2013-03-28 03:19:00,54.1,48.4,30.09,North,0,0.0,0.0,82,0.00,,,0.00,WUHU216HW,2013-03-28 08:19:00,
2013-03-28 03:24:00,54.1,48.4,30.09,North,0,0.0,0.0,82,0.00,,,0.00,WUHU216HW,2013-03-28 08:24:00,
2013-03-28 03:29:00,54.1,48.4,30.09,North,0,0.0,0.0,82,0.00,,,0.00,WUHU216HW,2013-03-28 08:29:00,
2013-03-28 03:34:00,54.3,48.9,30.09,North,0,0.0,0.0,82,0.00,,,0.00,WUHU216HW,2013-03-28 08:34:00,
2013-03-28 03:39:00,54.3,48.9,30.08,North,0,0.0,0.0,82,0.00,,,0.00,WUHU216HW,2013-03-28 08:39:00,
2013-03-28 03:44:00,54.5,49.1,30.08,North,0,0.0,0.0,82,0.00,,,0.00,WUHU216HW,2013-03-28 08:44:00,
2013-03-28 03:49:00,54.6,49.2,30.08,North,0,0.0,0.0,82,0.00,,,0.00,WUHU216HW,2013-03-28 08:49:00,
2013-03-28 03:54:00,55.0,49.5,30.08,North,0,0.0,0.0,82,0.00,,,0.00,WUHU216HW,2013-03-28 08:54:00,
2013-03-28 03:59:00,55.2,49.4,30.08,North,0,0.0,0.0,81,0.00,,,0.00,WUHU216HW,2013-03-28 08:59:00,
2013-03-28 04:04:00,55.5,49.7,30.08,North,0,0.0,0.0,81,0.00,,,0.00,WUHU216HW,2013-03-28 09:04:00,
2013-03-28 04:09:00,55.5,49.7,30.08,North,0,0.0,0.0,81,0.00,,,0.00,WUHU216HW,2013-03-28 09:09:00,
2013-03-28 04:14:00,55.9,49.8,30.08,North,0,0.0,0.0,80,0.00,,,0.00,WUHU216HW,2013-03-28 09:14:00,
2013-03-28 04:19:00,55.9,49.8,30.07,North,0,0.0,0.0,80,0.00,,,0.00,WUHU216HW,2013-03-28 09:19:00,
2013-03-28 04:24:00,56.1,50.0,30.08,North,0,0.0,0.0,80,0.00,,,0.00,WUHU216HW,2013-03-28 09:24:00,
2013-03-28 04:29:00,56.1,50.0,30.08,North,0,0.0,0.0,80,0.00,,,0.00,WUHU216HW,2013-03-28 09:29:00,
2013-03-28 04:34:00,56.3,50.1,30.07,North,0,0.0,0.0,80,0.00,,,0.00,WUHU216HW,2013-03-28 09:34:00,
2013-03-28 04:39:00,56.3,50.1,30.07,North,0,0.0,0.0,80,0.00,,,0.00,WUHU216HW,2013-03-28 09:39:00,
2013-03-28 04:44:00,56.3,50.1,30.07,North,0,0.0,0.0,80,0.00,,,0.00,WUHU216HW,2013-03-28 09:44:00,
2013-03-28 04:49:00,56.1,50.0,30.08,North,0,0.0,0.0,80,0.00,,,0.00,WUHU216HW,2013-03-28 09:49:00,
2013-03-28 04:54:00,56.3,50.1,30.07,North,0,0.0,0.0,80,0.00,,,0.00,WUHU216HW,2013-03-28 09:54:00,
2013-03-28 04:59:00,56.3,50.1,30.07,North,0,0.0,0.0,80,0.00,,,0.00,WUHU216HW,2013-03-28 09:59:00,
2013-03-28 05:04:00,56.3,50.1,30.07,North,0,0.0,0.0,80,0.00,,,0.00,WUHU216HW,2013-03-28 10:04:00,
2013-03-28 05:09:00,56.4,50.6,30.08,North,0,0.0,0.0,80,0.00,,,0.00,WUHU216HW,2013-03-28 10:09:00,
2013-03-28 05:15:00,56.4,50.6,30.08,North,0,0.0,0.0,80,0.00,,,0.00,WUHU216HW,2013-03-28 10:15:00,
2013-03-28 05:20:00,56.4,50.6,30.08,North,0,0.0,0.0,80,0.00,,,0.00,WUHU216HW,2013-03-28 10:20:00,
2013-03-28 05:25:00,56.6,50.5,30.08,North,0,0.0,0.0,80,0.00,,,0.00,WUHU216HW,2013-03-28 10:25:00,
2013-03-28 05:30:00,56.6,50.5,30.08,North,0,0.0,0.0,80,0.00,,,0.00,WUHU216HW,2013-03-28 10:30:00,
2013-03-28 05:35:00,56.6,50.5,30.08,North,0,0.0,0.0,80,0.00,,,0.00,WUHU216HW,2013-03-28 10:35:00,
2013-03-28 05:40:00,56.4,50.3,30.08,North,0,0.0,0.0,81,0.00,,,0.00,WUHU216HW,2013-03-28 10:40:00,
2013-03-28 05:45:00,56.4,50.3,30.08,North,0,0.0,0.0,81,0.00,,,0.00,WUHU216HW,2013-03-28 10:45:00,
2013-03-28 05:50:00,56.6,50.8,30.08,North,0,0.0,0.0,81,0.00,,,0.00,WUHU216HW,2013-03-28 10:50:00,
2013-03-28 05:55:00,56.4,50.6,30.08,North,0,0.0,0.0,81,0.00,,,0.00,WUHU216HW,2013-03-28 10:55:00,
2013-03-28 06:00:00,56.4,50.6,30.09,North,0,0.0,0.0,81,0.00,,,0.00,WUHU216HW,2013-03-28 11:00:00,
2013-03-28 06:05:00,56.4,50.6,30.09,North,0,0.0,0.0,81,0.00,,,0.00,WUHU216HW,2013-03-28 11:05:00,
2013-03-28 06:10:00,56.4,50.6,30.09,North,0,0.0,0.0,81,0.00,,,0.00,WUHU216HW,2013-03-28 11:10:00,
2013-03-28 06:15:00,56.6,51.1,30.09,North,0,0.0,0.0,82,0.00,,,0.00,WUHU216HW,2013-03-28 11:15:00,
2013-03-28 06:20:00,56.6,51.1,30.09,North,0,0.0,0.0,81,0.00,,,0.00,WUHU216HW,2013-03-28 11:20:00,
2013-03-28 06:25:00,56.6,51.1,30.09,North,0,0.0,0.0,82,0.00,,,0.00,WUHU216HW,2013-03-28 11:25:00,
2013-03-28 06:30:00,56.8,51.0,30.10,North,0,0.0,0.0,81,0.00,,,0.00,WUHU216HW,2013-03-28 11:30:00,
2013-03-28 06:35:00,56.8,51.0,30.10,North,0,0.0,0.0,81,0.00,,,0.00,WUHU216HW,2013-03-28 11:35:00,
2013-03-28 06:40:00,56.8,51.0,30.10,North,0,0.0,0.0,82,0.00,,,0.00,WUHU216HW,2013-03-28 11:40:00,
2013-03-28 06:45:00,56.8,51.0,30.10,North,0,0.0,0.0,82,0.00,,,0.00,WUHU216HW,2013-03-28 11:45:00,
2013-03-28 06:50:00,56.8,51.0,30.10,North,0,0.0,0.0,82,0.00,,,0.00,WUHU216HW,2013-03-28 11:50:00,
2013-03-28 06:55:00,56.8,51.0,30.10,North,0,0.0,0.0,82,0.00,,,0.00,WUHU216HW,2013-03-28 11:55:00,
2013-03-28 07:00:00,56.8,51.0,30.11,North,0,0.0,0.0,82,0.00,,,0.00,WUHU216HW,2013-03-28 12:00:00,
2013-03-28 07:05:00,56.8,51.0,30.11,North,0,0.0,0.0,82,0.00,,,0.00,WUHU216HW,2013-03-28 12:05:00,
2013-03-28 07:10:00,56.8,51.0,30.11,North,0,0.0,0.0,82,0.00,,,0.00,WUHU216HW,2013-03-28 12:10:00,
2013-03-28 07:15:00,56.8,51.0,30.11,North,0,0.0,0.0,82,0.00,,,0.00,WUHU216HW,2013-03-28 12:15:00,
2013-03-28 07:20:00,56.8,51.0,30.11,North,0,0.0,0.0,82,0.00,,,0.00,WUHU216HW,2013-03-28 12:20:00,
2013-03-28 07:25:00,56.8,51.0,30.11,North,0,0.0,0.0,82,0.00,,,0.00,WUHU216HW,2013-03-28 12:25:00,
2013-03-28 07:30:00,57.0,51.5,30.11,North,0,0.0,0.0,82,0.00,,,0.00,WUHU216HW,2013-03-28 12:30:00,
2013-03-28 07:35:00,57.0,51.5,30.12,North,0,0.0,0.0,82,0.00,,,0.00,WUHU216HW,2013-03-28 12:35:00,
2013-03-28 07:40:00,57.0,51.5,30.12,North,0,0.0,0.0,82,0.00,,,0.00,WUHU216HW,2013-03-28 12:40:00,
2013-03-28 07:45:00,57.0,51.5,30.12,North,0,0.0,0.0,82,0.00,,,0.00,WUHU216HW,2013-03-28 12:45:00,
2013-03-28 07:50:00,57.0,51.5,30.12,North,0,0.0,0.0,82,0.00,,,0.00,WUHU216HW,2013-03-28 12:50:00,
2013-03-28 07:55:00,57.0,51.5,30.12,North,0,0.0,0.0,82,0.00,,,0.00,WUHU216HW,2013-03-28 12:55:00,
2013-03-28 08:00:00,57.0,51.5,30.12,North,0,0.0,0.0,82,0.00,,,0.00,WUHU216HW,2013-03-28 13:00:00,
2013-03-28 08:05:00,57.2,51.7,30.12,North,0,0.0,0.0,82,0.00,,,0.00,WUHU216HW,2013-03-28 13:05:00,
2013-03-28 08:10:00,57.3,51.9,30.12,North,0,0.0,0.0,82,0.00,,,0.00,WUHU216HW,2013-03-28 13:10:00,
2013-03-28 08:15:00,57.3,51.9,30.12,North,0,0.0,0.0,82,0.00,,,0.00,WUHU216HW,2013-03-28 13:15:00,
2013-03-28 08:20:00,57.3,51.9,30.12,North,0,0.0,0.0,82,0.00,,,0.00,WUHU216HW,2013-03-28 13:20:00,
2013-03-28 08:25:00,57.5,52.0,30.13,North,0,0.0,0.0,82,0.00,,,0.00,WUHU216HW,2013-03-28 13:25:00,
2013-03-28 08:30:00,57.7,52.2,30.12,North,0,0.0,0.0,82,0.00,,,0.00,WUHU216HW,2013-03-28 13:30:00,
2013-03-28 08:35:00,57.7,52.2,30.12,North,0,0.0,0.0,82,0.00,,,0.00,WUHU216HW,2013-03-28 13:35:00,
2013-03-28 08:40:00,57.9,52.1,30.13,North,0,0.0,0.0,81,0.00,,,0.00,WUHU216HW,2013-03-28 13:40:00,
2013-03-28 08:45:00,57.9,52.1,30.13,North,0,0.0,0.0,81,0.00,,,0.00,WUHU216HW,2013-03-28 13:45:00,
2013-03-28 08:50:00,57.9,52.1,30.13,North,0,0.0,0.0,81,0.00,,,0.00,WUHU216HW,2013-03-28 13:50:00,
2013-03-28 08:55:00,58.1,52.3,30.13,North,0,0.0,0.0,81,0.00,,,0.00,WUHU216HW,2013-03-28 13:55:00,
2013-03-28 09:00:00,58.1,52.3,30.13,North,0,0.0,0.0,81,0.00,,,0.00,WUHU216HW,2013-03-28 14:00:00,
2013-03-28 09:05:00,58.2,52.4,30.13,North,0,0.0,0.0,81,0.00,,,0.00,WUHU216HW,2013-03-28 14:05:00,
2013-03-28 09:10:00,58.6,52.8,30.13,North,0,0.0,0.0,81,0.00,,,0.00,WUHU216HW,2013-03-28 14:10:00,
2013-03-28 09:15:00,58.8,52.7,30.14,North,0,0.0,0.0,80,0.00,,,0.00,WUHU216HW,2013-03-28 14:15:00,
2013-03-28 09:20:00,58.8,52.7,30.14,North,0,0.0,0.0,80,0.00,,,0.00,WUHU216HW,2013-03-28 14:20:00,
2013-03-28 09:26:00,59.0,52.8,30.14,North,0,0.0,0.0,80,0.00,,,0.00,WUHU216HW,2013-03-28 14:26:00,
2013-03-28 09:31:00,59.0,52.8,30.14,North,0,0.0,0.0,80,0.00,,,0.00,WUHU216HW,2013-03-28 14:31:00,
2013-03-28 09:36:00,59.1,53.0,30.14,North,0,0.0,0.0,80,0.00,,,0.00,WUHU216HW,2013-03-28 14:36:00,
2013-03-28 09:41:00,59.0,52.8,30.14,North,0,0.0,0.0,80,0.00,,,0.00,WUHU216HW,2013-03-28 14:41:00,
2013-03-28 09:46:00,59.1,53.0,30.14,North,0,0.0,0.0,80,0.00,,,0.00,WUHU216HW,2013-03-28 14:46:00,
2013-03-28 09:51:00,59.7,53.6,30.14,North,0,0.0,0.0,80,0.00,,,0.00,WUHU216HW,2013-03-28 14:51:00,
2013-03-28 09:56:00,60.4,53.9,30.14,North,0,0.0,0.0,79,0.00,,,0.00,WUHU216HW,2013-03-28 14:56:00,
2013-03-28 10:01:00,60.8,53.9,30.14,North,0,0.0,0.0,78,0.00,,,0.00,WUHU216HW,2013-03-28 15:01:00,
2013-03-28 10:06:00,60.6,53.4,30.14,North,0,0.0,0.0,77,0.00,,,0.00,WUHU216HW,2013-03-28 15:06:00,
2013-03-28 10:11:00,60.6,53.7,30.14,North,0,0.0,0.0,78,0.00,,,0.00,WUHU216HW,2013-03-28 15:11:00,
2013-03-28 10:16:00,60.6,53.7,30.14,North,0,0.0,0.0,78,0.00,,,0.00,WUHU216HW,2013-03-28 15:16:00,
2013-03-28 10:21:00,60.9,54.1,30.14,North,0,0.0,0.0,78,0.00,,,0.00,WUHU216HW,2013-03-28 15:21:00,
2013-03-28 10:26:00,60.9,53.7,30.15,North,0,0.0,0.0,77,0.00,,,0.00,WUHU216HW,2013-03-28 15:26:00,
2013-03-28 10:31:00,61.1,53.9,30.14,North,0,0.0,0.0,77,0.00,,,0.00,WUHU216HW,2013-03-28 15:31:00,
2013-03-28 10:36:00,61.3,54.0,30.15,North,0,0.0,0.0,77,0.00,,,0.00,WUHU216HW,2013-03-28 15:36:00,
2013-03-28 10:41:00,61.5,54.2,30.15,North,0,0.0,0.0,77,0.00,,,0.00,WUHU216HW,2013-03-28 15:41:00,
2013-03-28 10:46:00,61.5,54.2,30.15,North,0,0.0,0.0,77,0.00,,,0.00,WUHU216HW,2013-03-28 15:46:00,
2013-03-28 10:51:00,61.3,54.0,30.15,North,0,0.0,0.0,77,0.00,,,0.00,WUHU216HW,2013-03-28 15:51:00,
2013-03-28 10:56:00,61.3,54.0,30.15,North,0,0.0,0.0,77,0.00,,,0.00,WUHU216HW,2013-03-28 15:56:00,
2013-03-28 11:01:00,61.7,54.4,30.15,North,0,0.0,0.0,77,0.00,,,0.00,WUHU216HW,2013-03-28 16:01:00,
2013-03-28 11:06:00,61.7,54.4,30.15,North,0,0.0,0.0,77,0.00,,,0.00,WUHU216HW,2013-03-28 16:06:00,
2013-03-28 11:12:00,61.8,54.9,30.15,North,0,0.0,0.0,77,0.00,,,0.00,WUHU216HW,2013-03-28 16:12:00,
2013-03-28 11:17:00,62.2,54.8,30.15,North,0,0.0,0.0,77,0.00,,,0.00,WUHU216HW,2013-03-28 16:17:00,
2013-03-28 11:22:00,62.4,55.0,30.15,North,0,0.0,0.0,77,0.00,,,0.00,WUHU216HW,2013-03-28 16:22:00,
2013-03-28 11:27:00,62.2,54.5,30.15,North,0,0.0,0.0,76,0.00,,,0.00,WUHU216HW,2013-03-28 16:27:00,
2013-03-28 11:32:00,62.7,55.4,30.15,North,0,0.0,0.0,77,0.00,,,0.00,WUHU216HW,2013-03-28 16:32:00,
2013-03-28 11:37:00,62.4,54.7,30.15,North,0,0.0,0.0,76,0.00,,,0.00,WUHU216HW,2013-03-28 16:37:00,
2013-03-28 11:42:00,62.4,54.7,30.15,North,0,0.0,0.0,77,0.00,,,0.00,WUHU216HW,2013-03-28 16:42:00,
2013-03-28 11:47:00,62.6,55.2,30.15,North,0,0.0,0.0,76,0.00,,,0.00,WUHU216HW,2013-03-28 16:47:00,
2013-03-28 11:52:00,62.7,55.4,30.14,North,0,0.0,0.0,77,0.00,,,0.00,WUHU216HW,2013-03-28 16:52:00,
2013-03-28 11:57:00,63.1,55.4,30.14,North,0,0.0,0.0,76,0.00,,,0.00,WUHU216HW,2013-03-28 16:57:00,
2013-03-28 12:02:00,63.5,55.4,30.14,North,0,0.0,0.0,75,0.00,,,0.00,WUHU216HW,2013-03-28 17:02:00,
2013-03-28 12:07:00,63.6,55.5,30.14,North,0,0.0,0.0,75,0.00,,,0.00,WUHU216HW,2013-03-28 17:07:00,
2013-03-28 12:12:00,63.6,55.5,30.14,North,0,0.0,0.0,75,0.00,,,0.00,WUHU216HW,2013-03-28 17:12:00,
2013-03-28 12:17:00,63.6,55.5,30.14,North,0,0.0,0.0,75,0.00,,,0.00,WUHU216HW,2013-03-28 17:17:00,
2013-03-28 13:08:00,65.8,56.9,30.13,North,0,0.0,0.0,73,0.00,,,0.00,WUHU216HW,2013-03-28 18:08:00,
2013-03-28 13:13:00,66.0,56.7,30.13,North,0,0.0,0.0,72,0.00,,,0.00,WUHU216HW,2013-03-28 18:13:00,
2013-03-28 13:18:00,66.7,57.4,30.13,North,0,0.0,0.0,72,0.00,,,0.00,WUHU216HW,2013-03-28 18:18:00,
2013-03-28 13:23:00,67.2,57.5,30.13,North,0,0.0,0.0,71,0.00,,,0.00,WUHU216HW,2013-03-28 18:23:00,
2013-03-28 13:28:00,67.6,57.5,30.13,North,0,0.0,0.0,69,0.00,,,0.00,WUHU216HW,2013-03-28 18:28:00,
2013-03-28 13:33:00,67.6,57.5,30.13,North,0,0.0,0.0,69,0.00,,,0.00,WUHU216HW,2013-03-28 18:33:00,
2013-03-28 13:38:00,67.2,56.7,30.12,North,0,0.0,0.0,69,0.00,,,0.00,WUHU216HW,2013-03-28 18:38:00,
2013-03-28 13:43:00,67.4,57.3,30.12,North,0,0.0,0.0,70,0.00,,,0.00,WUHU216HW,2013-03-28 18:43:00,
2013-03-28 13:48:00,67.2,57.2,30.12,North,0,0.0,0.0,69,0.00,,,0.00,WUHU216HW,2013-03-28 18:48:00,
2013-03-28 13:54:00,67.4,56.9,30.12,North,0,0.0,0.0,69,0.00,,,0.00,WUHU216HW,2013-03-28 18:54:00,
2013-03-28 13:59:00,66.9,56.8,30.12,North,0,0.0,0.0,70,0.00,,,0.00,WUHU216HW,2013-03-28 18:59:00,
2013-03-28 14:04:00,66.9,56.8,30.12,North,0,0.0,0.0,70,0.00,,,0.00,WUHU216HW,2013-03-28 19:04:00,
2013-03-28 14:09:00,66.9,56.8,30.12,North,0,0.0,0.0,70,0.00,,,0.00,WUHU216HW,2013-03-28 19:09:00,
2013-03-28 14:14:00,66.9,56.8,30.12,North,0,0.0,0.0,70,0.00,,,0.00,WUHU216HW,2013-03-28 19:14:00,
2013-03-28 14:19:00,67.1,57.0,30.11,North,0,0.0,0.0,70,0.00,,,0.00,WUHU216HW,2013-03-28 19:19:00,
2013-03-28 14:24:00,67.2,56.7,30.11,North,0,0.0,0.0,69,0.00,,,0.00,WUHU216HW,2013-03-28 19:24:00,
2013-03-28 14:29:00,67.6,57.1,30.11,North,0,0.0,0.0,69,0.00,,,0.00,WUHU216HW,2013-03-28 19:29:00,
2013-03-28 14:34:00,67.8,57.3,30.11,North,0,0.0,0.0,69,0.00,,,0.00,WUHU216HW,2013-03-28 19:34:00,
2013-03-28 14:39:00,68.3,57.3,30.11,North,0,0.0,0.0,68,0.00,,,0.00,WUHU216HW,2013-03-28 19:39:00,
2013-03-28 14:44:00,68.3,57.3,30.11,North,0,0.0,0.0,68,0.00,,,0.00,WUHU216HW,2013-03-28 19:44:00,
2013-03-28 14:49:00,68.5,57.1,30.10,North,0,0.0,0.0,67,0.00,,,0.00,WUHU216HW,2013-03-28 19:49:00,
2013-03-28 14:54:00,69.9,58.4,30.10,North,0,0.0,0.0,67,0.00,,,0.00,WUHU216HW,2013-03-28 19:54:00,
2013-03-28 14:59:00,70.7,57.4,30.10,North,0,0.0,0.0,63,0.00,,,0.00,WUHU216HW,2013-03-28 19:59:00,
2013-03-28 15:04:00,70.5,57.3,30.09,North,0,0.0,0.0,64,0.00,,,0.00,WUHU216HW,2013-03-28 20:04:00,
2013-03-28 15:09:00,70.8,57.6,30.09,North,0,0.0,0.0,63,0.00,,,0.00,WUHU216HW,2013-03-28 20:09:00,
2013-03-28 15:14:00,71.4,58.5,30.09,North,0,0.0,0.0,64,0.00,,,0.00,WUHU216HW,2013-03-28 20:14:00,
2013-03-28 15:20:00,72.6,57.9,30.08,North,0,0.0,0.0,60,0.00,,,0.00,WUHU216HW,2013-03-28 20:20:00,
2013-03-28 15:25:00,71.4,57.2,30.08,North,0,0.0,0.0,61,0.00,,,0.00,WUHU216HW,2013-03-28 20:25:00,
2013-03-28 15:30:00,71.2,57.5,30.08,North,0,0.0,0.0,62,0.00,,,0.00,WUHU216HW,2013-03-28 20:30:00,
2013-03-28 15:35:00,70.5,56.8,30.08,North,0,0.0,0.0,62,0.00,,,0.00,WUHU216HW,2013-03-28 20:35:00,
2013-03-28 15:40:00,70.8,57.2,30.08,North,0,0.0,0.0,62,0.00,,,0.00,WUHU216HW,2013-03-28 20:40:00,
2013-03-28 15:45:00,70.7,57.0,30.08,North,0,0.0,0.0,62,0.00,,,0.00,WUHU216HW,2013-03-28 20:45:00,
2013-03-28 15:50:00,70.7,57.0,30.08,North,0,0.0,0.0,62,0.00,,,0.00,WUHU216HW,2013-03-28 20:50:00,
2013-03-28 15:55:00,70.5,56.8,30.08,North,0,0.0,0.0,62,0.00,,,0.00,WUHU216HW,2013-03-28 20:55:00,
2013-03-28 16:00:00,70.5,56.8,30.07,North,0,0.0,0.0,62,0.00,,,0.00,WUHU216HW,2013-03-28 21:00:00,
2013-03-28 16:05:00,70.8,57.2,30.08,North,0,0.0,0.0,62,0.00,,,0.00,WUHU216HW,2013-03-28 21:05:00,
2013-03-28 16:10:00,71.4,57.7,30.08,North,0,0.0,0.0,62,0.00,,,0.00,WUHU216HW,2013-03-28 21:10:00,
2013-03-28 16:15:00,71.4,57.2,30.08,North,0,0.0,0.0,61,0.00,,,0.00,WUHU216HW,2013-03-28 21:15:00,
2013-03-28 16:20:00,70.8,57.2,30.08,North,0,0.0,0.0,62,0.00,,,0.00,WUHU216HW,2013-03-28 21:20:00,
2013-03-28 16:25:00,70.5,56.8,30.08,North,0,0.0,0.0,62,0.00,,,0.00,WUHU216HW,2013-03-28 21:25:00,
2013-03-28 16:30:00,69.9,56.8,30.08,North,0,0.0,0.0,63,0.00,,,0.00,WUHU216HW,2013-03-28 21:30:00,
2013-03-28 16:35:00,69.6,56.8,30.08,North,0,0.0,0.0,64,0.00,,,0.00,WUHU216HW,2013-03-28 21:35:00,
2013-03-28 16:40:00,69.4,56.7,30.08,North,0,0.0,0.0,65,0.00,,,0.00,WUHU216HW,2013-03-28 21:40:00,
2013-03-28 16:44:00,69.0,56.7,30.08,North,0,0.0,0.0,65,0.00,,,0.00,WUHU216HW,2013-03-28 21:44:00,
2013-03-28 16:45:00,69.4,56.7,30.08,North,0,0.0,0.0,65,0.00,,,0.00,WUHU216HW,2013-03-28 21:45:00,
2013-03-28 16:50:00,69.0,56.7,30.08,North,0,0.0,0.0,65,0.00,,,0.00,WUHU216HW,2013-03-28 21:50:00,
2013-03-28 17:02:00,67.6,56.7,30.09,North,0,0.0,0.0,68,0.00,,,0.00,WUHU216HW,2013-03-28 22:02:00,
2013-03-28 17:07:00,67.4,56.5,30.08,North,0,0.0,0.0,68,0.00,,,0.00,WUHU216HW,2013-03-28 22:07:00,
2013-03-28 17:12:00,67.2,56.3,30.08,North,0,0.0,0.0,69,0.00,,,0.00,WUHU216HW,2013-03-28 22:12:00,
2013-03-28 17:17:00,66.9,56.4,30.09,North,0,0.0,0.0,69,0.00,,,0.00,WUHU216HW,2013-03-28 22:17:00,
2013-03-28 17:22:00,67.1,56.5,30.09,North,0,0.0,0.0,69,0.00,,,0.00,WUHU216HW,2013-03-28 22:22:00,
2013-03-28 17:27:00,67.2,56.7,30.09,North,0,0.0,0.0,69,0.00,,,0.00,WUHU216HW,2013-03-28 22:27:00,
2013-03-28 17:32:00,67.2,56.7,30.08,North,0,0.0,0.0,69,0.00,,,0.00,WUHU216HW,2013-03-28 22:32:00,
2013-03-28 17:37:00,67.4,56.5,30.08,North,0,0.0,0.0,68,0.00,,,0.00,WUHU216HW,2013-03-28 22:37:00,
2013-03-28 17:42:00,67.2,56.3,30.08,North,0,0.0,0.0,68,0.00,,,0.00,WUHU216HW,2013-03-28 22:42:00,
2013-03-28 17:47:00,67.2,56.3,30.08,North,0,0.0,0.0,68,0.00,,,0.00,WUHU216HW,2013-03-28 22:47:00,
2013-03-28 17:52:00,67.2,56.3,30.08,North,0,0.0,0.0,68,0.00,,,0.00,WUHU216HW,2013-03-28 22:52:00,
2013-03-28 17:57:00,67.2,56.3,30.08,North,0,0.0,0.0,68,0.00,,,0.00,WUHU216HW,2013-03-28 22:57:00,
2013-03-28 18:02:00,67.2,56.3,30.08,North,0,0.0,0.0,68,0.00,,,0.00,WUHU216HW,2013-03-28 23:02:00,
2013-03-28 18:07:00,67.6,56.7,30.08,North,0,0.0,0.0,68,0.00,,,0.00,WUHU216HW,2013-03-28 23:07:00,
2013-03-28 18:12:00,67.8,56.8,30.08,North,0,0.0,0.0,68,0.00,,,0.00,WUHU216HW,2013-03-28 23:12:00,
2013-03-28 18:17:00,68.5,57.1,30.08,North,0,0.0,0.0,67,0.00,,,0.00,WUHU216HW,2013-03-28 23:17:00,
2013-03-28 18:22:00,68.5,56.7,30.08,North,0,0.0,0.0,66,0.00,,,0.00,WUHU216HW,2013-03-28 23:22:00,
2013-03-28 18:27:00,68.1,56.7,30.08,North,0,0.0,0.0,67,0.00,,,0.00,WUHU216HW,2013-03-28 23:27:00,
2013-03-28 18:32:00,68.0,56.6,30.08,North,0,0.0,0.0,67,0.00,,,0.00,WUHU216HW,2013-03-28 23:32:00,
2013-03-28 18:37:00,67.8,56.4,30.09,North,0,0.0,0.0,67,0.00,,,0.00,WUHU216HW,2013-03-28 23:37:00,
2013-03-28 18:42:00,67.8,56.4,30.08,North,0,0.0,0.0,67,0.00,,,0.00,WUHU216HW,2013-03-28 23:42:00,
2013-03-28 18:47:00,67.8,56.4,30.08,North,0,0.0,0.0,67,0.00,,,0.00,WUHU216HW,2013-03-28 23:47:00,
2013-03-28 18:52:00,67.6,56.2,30.09,North,0,0.0,0.0,68,0.00,,,0.00,WUHU216HW,2013-03-28 23:52:00,
2013-03-28 18:57:00,67.6,56.2,30.09,North,0,0.0,0.0,68,0.00,,,0.00,WUHU216HW,2013-03-28 23:57:00,
2013-03-28 19:12:00,66.9,55.9,30.09,North,0,0.0,0.0,68,0.00,,,0.00,WUHU216HW,2013-03-29 00:12:00,
2013-03-28 19:48:00,66.5,56.0,30.10,North,0,0.0,0.0,69,0.00,,,0.00,WUHU216HW,2013-03-29 00:48:00,
2013-03-28 19:53:00,66.3,55.8,30.09,North,0,0.0,0.0,69,0.00,,,0.00,WUHU216HW,2013-03-29 00:53:00,
2013-03-28 19:58:00,66.3,55.8,30.09,North,0,0.0,0.0,70,0.00,,,0.00,WUHU216HW,2013-03-29 00:58:00,
2013-03-28 20:03:00,66.3,55.8,30.09,North,0,0.0,0.0,70,0.00,,,0.00,WUHU216HW,2013-03-29 01:03:00,
2013-03-28 20:08:00,66.0,55.9,30.09,North,0,0.0,0.0,70,0.00,,,0.00,WUHU216HW,2013-03-29 01:08:00,
2013-03-28 20:13:00,66.0,55.9,30.09,North,0,0.0,0.0,70,0.00,,,0.00,WUHU216HW,2013-03-29 01:13:00,
2013-03-28 20:18:00,65.8,56.1,30.09,North,0,0.0,0.0,71,0.00,,,0.00,WUHU216HW,2013-03-29 01:18:00,
2013-03-28 20:23:00,65.8,56.1,30.09,North,0,0.0,0.0,71,0.00,,,0.00,WUHU216HW,2013-03-29 01:23:00,
2013-03-28 20:28:00,65.8,56.1,30.09,North,0,0.0,0.0,71,0.00,,,0.00,WUHU216HW,2013-03-29 01:28:00,
2013-03-28 20:33:00,65.8,56.1,30.09,North,0,0.0,0.0,71,0.00,,,0.00,WUHU216HW,2013-03-29 01:33:00,
2013-03-28 20:38:00,65.8,56.1,30.09,North,0,0.0,0.0,71,0.00,,,0.00,WUHU216HW,2013-03-29 01:38:00,
2013-03-28 20:43:00,65.8,56.1,30.09,North,0,0.0,0.0,71,0.00,,,0.00,WUHU216HW,2013-03-29 01:43:00,
2013-03-28 20:48:00,65.4,55.8,30.09,North,0,0.0,0.0,71,0.00,,,0.00,WUHU216HW,2013-03-29 01:48:00,
2013-03-28 20:53:00,65.4,55.8,30.09,North,0,0.0,0.0,71,0.00,,,0.00,WUHU216HW,2013-03-29 01:53:00,
2013-03-28 20:59:00,65.4,55.8,30.09,North,0,0.0,0.0,71,0.00,,,0.00,WUHU216HW,2013-03-29 01:59:00,
2013-03-28 21:04:00,65.1,55.5,30.09,North,0,0.0,0.0,71,0.00,,,0.00,WUHU216HW,2013-03-29 02:04:00,
2013-03-28 21:09:00,65.1,55.5,30.10,North,0,0.0,0.0,72,0.00,,,0.00,WUHU216HW,2013-03-29 02:09:00,
2013-03-28 21:14:00,64.9,55.7,30.10,North,0,0.0,0.0,72,0.00,,,0.00,WUHU216HW,2013-03-29 02:14:00,
2013-03-28 21:19:00,64.9,55.7,30.09,North,0,0.0,0.0,72,0.00,,,0.00,WUHU216HW,2013-03-29 02:19:00,
2013-03-28 21:24:00,64.9,55.7,30.10,North,0,0.0,0.0,72,0.00,,,0.00,WUHU216HW,2013-03-29 02:24:00,
2013-03-28 21:29:00,64.9,55.7,30.10,North,0,0.0,0.0,72,0.00,,,0.00,WUHU216HW,2013-03-29 02:29:00,
2013-03-28 21:34:00,65.1,55.8,30.10,North,0,0.0,0.0,72,0.00,,,0.00,WUHU216HW,2013-03-29 02:34:00,
2013-03-28 21:39:00,65.1,55.8,30.10,North,0,0.0,0.0,72,0.00,,,0.00,WUHU216HW,2013-03-29 02:39:00,
2013-03-28 21:44:00,64.9,55.7,30.10,North,0,0.0,0.0,72,0.00,,,0.00,WUHU216HW,2013-03-29 02:44:00,
2013-03-28 21:49:00,64.9,55.7,30.10,North,0,0.0,0.0,72,0.00,,,0.00,WUHU216HW,2013-03-29 02:49:00,
2013-03-28 21:54:00,64.9,55.7,30.10,North,0,0.0,0.0,72,0.00,,,0.00,WUHU216HW,2013-03-29 02:54:00,
2013-03-28 21:59:00,65.1,55.8,30.10,North,0,0.0,0.0,72,0.00,,,0.00,WUHU216HW,2013-03-29 02:59:00,
2013-03-28 22:04:00,65.1,55.8,30.10,North,0,0.0,0.0,72,0.00,,,0.00,WUHU216HW,2013-03-29 03:04:00,
2013-03-28 22:09:00,64.9,55.7,30.10,North,0,0.0,0.0,72,0.00,,,0.00,WUHU216HW,2013-03-29 03:09:00,
2013-03-28 22:14:00,64.9,55.7,30.10,North,0,0.0,0.0,72,0.00,,,0.00,WUHU216HW,2013-03-29 03:14:00,
2013-03-28 22:19:00,64.9,55.7,30.10,North,0,0.0,0.0,72,0.00,,,0.00,WUHU216HW,2013-03-29 03:19:00,
2013-03-28 22:24:00,64.9,55.7,30.10,North,0,0.0,0.0,72,0.00,,,0.00,WUHU216HW,2013-03-29 03:24:00,
2013-03-28 22:29:00,64.9,55.7,30.10,North,0,0.0,0.0,73,0.00,,,0.00,WUHU216HW,2013-03-29 03:29:00,
2013-03-28 22:34:00,64.7,55.9,30.10,North,0,0.0,0.0,73,0.00,,,0.00,WUHU216HW,2013-03-29 03:34:00,
2013-03-28 22:39:00,64.5,55.7,30.10,North,0,0.0,0.0,73,0.00,,,0.00,WUHU216HW,2013-03-29 03:39:00,
2013-03-28 22:44:00,64.0,55.2,30.10,North,0,0.0,0.0,73,0.00,,,0.00,WUHU216HW,2013-03-29 03:44:00,
2013-03-28 22:49:00,63.6,55.2,30.10,North,0,0.0,0.0,74,0.00,,,0.00,WUHU216HW,2013-03-29 03:49:00,
2013-03-28 22:54:00,63.5,55.0,30.10,North,0,0.0,0.0,74,0.00,,,0.00,WUHU216HW,2013-03-29 03:54:00,
2013-03-28 22:59:00,63.3,54.8,30.10,North,0,0.0,0.0,74,0.00,,,0.00,WUHU216HW,2013-03-29 03:59:00,
2013-03-28 23:04:00,63.1,54.6,30.10,North,0,0.0,0.0,75,0.00,,,0.00,WUHU216HW,2013-03-29 04:04:00,
2013-03-28 23:09:00,62.7,54.6,30.10,North,0,0.0,0.0,75,0.00,,,0.00,WUHU216HW,2013-03-29 04:09:00,
2013-03-28 23:14:00,62.4,54.3,30.10,North,0,0.0,0.0,75,0.00,,,0.00,WUHU216HW,2013-03-29 04:14:00,
2013-03-28 23:19:00,62.4,54.3,30.10,North,0,0.0,0.0,75,0.00,,,0.00,WUHU216HW,2013-03-29 04:19:00,
2013-03-28 23:24:00,62.2,54.5,30.10,North,0,0.0,0.0,76,0.00,,,0.00,WUHU216HW,2013-03-29 04:24:00,
2013-03-28 23:29:00,62.2,54.5,30.10,North,0,0.0,0.0,76,0.00,,,0.00,WUHU216HW,2013-03-29 04:29:00,
2013-03-28 23:34:00,61.8,54.5,30.10,North,0,0.0,0.0,77,0.00,,,0.00,WUHU216HW,2013-03-29 04:34:00,
2013-03-28 23:39:00,61.7,54.4,30.10,North,0,0.0,0.0,77,0.00,,,0.00,WUHU216HW,2013-03-29 04:39:00,
2013-03-28 23:44:00,61.5,54.6,30.11,North,0,0.0,0.0,78,0.00,,,0.00,WUHU216HW,2013-03-29 04:44:00,
2013-03-28 23:49:00,61.3,54.4,30.11,North,0,0.0,0.0,78,0.00,,,0.00,WUHU216HW,2013-03-29 04:49:00,
2013-03-28 23:54:00,61.3,54.4,30.10,North,0,0.0,0.0,79,0.00,,,0.00,WUHU216HW,2013-03-29 04:54:00,
2013-03-28 23:59:00,61.1,54.6,30.10,North,0,0.0,0.0,79,0.00,,,0.00,WUHU216HW,2013-03-29 04:59:00,